Regional Weather Roundup
Issued by NWS Cleveland, OH

Home | Current Version | Previous Version | Graphics & Text | Print | Product List | Glossary On
Versions: 1 2 3 4 5 6 7 8 9 10 11 12 13 14 15 16 17 18 19 20 21 22 23 24 25 26 27 28 29 30 31 32 33 34 35 36 37 38 39 40 41 42 43 44 45 46 47 48 49 50
722
ASUS41 KCLE 100810
RWRCLE
OHIO REGIONAL WEATHER ROUNDUP
NATIONAL WEATHER SERVICE WILMINGTON, OH
300 AM EST WED FEB 10 2016

NOTE: "FAIR" INDICATES FEW OR NO CLOUDS BELOW 12,000 FEET WITH NO
SIGNIFICANT WEATHER AND/OR OBSTRUCTIONS TO VISIBILITY.

OHZ001>008-015>018-024>027-034-035-043-044-100900-
   NORTHWEST OHIO

CITY           SKY/WX    TMP DP  RH WIND       PRES   REMARKS
DEFIANCE       FLURRIES  21  14  74 VRB7      29.80S WCI  12
FINDLAY        CLOUDY    20  13  74 W17       29.79R WCI   5
TOLEDO EXPRESS CLOUDY    22  17  81 W18       29.76S WCI   7
TOLEDO EXEC    CLOUDY    23  17  78 W14       29.77R WCI  11
LIMA           LGT SNOW  17  13  84 W15       29.81S FOG     WCI   2
$$

OHZ009>014-019>023-028>033-038-089-100900-
   NORTHEAST OHIO

CITY           SKY/WX    TMP DP  RH WIND       PRES   REMARKS
CLE-HOPKINS    FLURRIES  23  18  81 W18       29.74R WCI   9
CLE-LAKEFRONT  LGT SNOW  26  21  81 SW21      29.71R WCI  12
CUY CO. ARPT   NOT AVBL
LORAIN-ELYRIA  CLOUDY    22  17  81 W18       29.74R WCI   7
ASHTABULA      LGT SNOW  25  21  85 W13G18    29.66S FOG     WCI  14
AKRON-CANTON   FLURRIES  22  15  75 W17G23    29.71R WCI   8
WOOSTER        CLOUDY    21  16  81 W15       29.73S WCI   8
MANSFIELD      FLURRIES  19  15  84 SW14G22   29.74R WCI   6
YOUNGSTOWN     FLURRIES  24  18  77 W12G21    29.66S WCI  13
$$

OHZ042-051>053-060>062-070>072-077>081-100900-
  SOUTHWEST OHIO

CITY           SKY/WX    TMP DP  RH WIND       PRES   REMARKS
CINC-COVINGTON FLURRIES  15   9  76 W9        29.92S WCI   3
CINC-LUNKEN    FLURRIES  17  13  84 W10       29.96F WCI   5
HAMILTON       CLOUDY    15   8  73 W8        29.94S WCI   4
DAYTON         CLOUDY    15   9  76 W17       29.86S WCI  -1
WRIGHT-PAT AFB CLOUDY    15   8  72 SW10      29.87S WCI   2
DAYTON GENERAL CLOUDY    13   6  74 SW10      29.88S WCI   0
WILMINGTON     FAIR      12   7  80 W13       29.87S WCI  -3
$$

OHZ036-037-039>041-045>050-054>059-063>069-073>076-082>088-100900-
  CENTRAL AND SOUTHEAST OHIO

CITY           SKY/WX    TMP DP  RH WIND       PRES   REMARKS
COLUMBUS       FLURRIES  18  10  73 W13       29.84R WCI   4
OSU AIRPORT    FLURRIES  17  12  80 W14       29.83S WCI   3
BOLTON FIELD   FLURRIES  16  11  79 W13       29.85S WCI   3
RICKENBACK AFB CLOUDY    17  11  77 W14       29.86S WCI   3
NEWARK         FLURRIES  20  13  74 MISG      29.82R
MARION         LGT SNOW  19  12  74 W10       29.79S WCI   7
LANCASTER      CLOUDY    18  11  74 W17       29.85R WCI   3
ZANESVILLE     CLOUDY    23  16  74 SW13      29.81R WCI  11
NEW PHILLY     CLOUDY    23  16  74 W9        29.77R WCI  13
$$




USA.gov is the U.S. government's official web portal to all federal, state and local government web resources and services.